Location: Niles Junction
(37.5763°N, 121.9714°W)
Time: 04:00:02
(UTC+00:00)

METEOR-M - Pass Details

Date: 29 October 2020
Orbit: 815 x 820 km, 98.5° (Epoch: 23 November)

Event Time Altitude Azimuth Distance (km) Brightness Sun altitude
Rises 13:25:36 0° 5° (N) 3,350 7.3 -13.4°
Reaches altitude 10° 13:28:02 10° 360° (N) 2,414 6.5 -12.9°
Maximum altitude 13:33:05 45° 289° (WNW) 1,107 4.4 -11.9°
Drops below altitude 10° 13:38:06 10° 218° (SW) 2,398 6.3 -10.9°
Sets 13:40:31 0° 212° (SSW) 3,326 7.1 -10.5°
